• în Republica Moldova
  • Lista ţărilor
  • Pe 7 zile
  • Temperatura apei
  • Hartă satelitară
  • Meteo pe hartă
  • Widget-uri
  • user-avatar
    Intrare

    Meteo pe oră la Bushevka (Chebotovichi)

    Astăzi, 16 Iulie, Luni

    Timp Temperatura Precipitaţii Vânt Presiune Umiditate
    00:00 +18°C° 0 mm 2 m/s 743 mmHg 93%
    01:00 +17°C° 0 mm 2 m/s 742 mmHg 94%
    02:00 +18°C° 0 mm 1 m/s 743 mmHg 95%
    03:00 +17°C° 0 mm 2 m/s 742 mmHg 95%
    04:00 +17°C° 0 mm 2 m/s 742 mmHg 95%
    05:00 +17°C° 0 mm 2 m/s 742 mmHg 96%
    06:00 +18°C° 0,1 mm 2 m/s 742 mmHg 93%
    07:00 +19°C° 0,1 mm 2 m/s 742 mmHg 90%
    08:00 +20°C° 0,1 mm 2 m/s 742 mmHg 88%
    09:00 +21°C° 0,4 mm 2 m/s 742 mmHg 86%
    10:00 +21°C° 0,4 mm 2 m/s 742 mmHg 85%
    11:00 +23°C° 0,4 mm 2 m/s 741 mmHg 83%
    12:00 +24°C° 0,4 mm 2 m/s 741 mmHg 78%
    13:00 +25°C° 0,4 mm 2 m/s 741 mmHg 73%
    14:00 +26°C° 0,4 mm 2 m/s 741 mmHg 68%
    15:00 +26°C° 0,6 mm 2 m/s 741 mmHg 69%
    16:00 +26°C° 0,6 mm 2 m/s 741 mmHg 70%
    17:00 +26°C° 0,6 mm 2 m/s 740 mmHg 71%
    18:00 +25°C° 0,3 mm 2 m/s 740 mmHg 77%
    19:00 +23°C° 0,3 mm 2 m/s 740 mmHg 82%
    20:00 +22°C° 0,3 mm 1 m/s 740 mmHg 88%
    21:00 +22°C° 0 mm 1 m/s 740 mmHg 89%
    22:00 +21°C° 0 mm 1 m/s 740 mmHg 91%
    23:00 +21°C° 0 mm 1 m/s 740 mmHg 92%

    Mâine, 17 Iulie, Marţi

    Timp Temperatura Precipitaţii Vânt Presiune Umiditate
    00:00 +21°C° 0,2 mm 1 m/s 740 mmHg 93%
    01:00 +21°C° 0,2 mm 1 m/s 740 mmHg 94%
    02:00 +20°C° 0,2 mm 1 m/s 740 mmHg 95%
    03:00 +20°C° 0,3 mm 1 m/s 740 mmHg 96%
    04:00 +20°C° 0,3 mm 1 m/s 739 mmHg 96%
    05:00 +20°C° 0,3 mm 1 m/s 739 mmHg 96%
    06:00 +20°C° 0,6 mm 2 m/s 739 mmHg 96%
    07:00 +20°C° 0,6 mm 2 m/s 739 mmHg 96%
    08:00 +20°C° 0,6 mm 2 m/s 739 mmHg 96%
    09:00 +21°C° 0,7 mm 2 m/s 739 mmHg 94%
    10:00 +21°C° 0,7 mm 2 m/s 739 mmHg 92%
    11:00 +23°C° 0,7 mm 2 m/s 739 mmHg 91%
    12:00 +24°C° 0,6 mm 2 m/s 739 mmHg 88%
    13:00 +24°C° 0,6 mm 2 m/s 739 mmHg 85%
    14:00 +25°C° 0,6 mm 2 m/s 739 mmHg 83%
    15:00 +25°C° 1,1 mm 2 m/s 739 mmHg 84%
    16:00 +25°C° 1,1 mm 2 m/s 739 mmHg 85%
    17:00 +25°C° 1,1 mm 2 m/s 739 mmHg 86%
    18:00 +24°C° 0,9 mm 2 m/s 739 mmHg 88%
    19:00 +23°C° 0,9 mm 2 m/s 738 mmHg 90%
    20:00 +23°C° 0,9 mm 2 m/s 738 mmHg 92%
    21:00 +21°C° 0,5 mm 2 m/s 738 mmHg 93%
    22:00 +21°C° 0,5 mm 2 m/s 738 mmHg 95%
    23:00 +21°C° 0,5 mm 3 m/s 738 mmHg 96%

    Poimâine, 18 Iulie, Miercuri

    Timp Temperatura Precipitaţii Vânt Presiune Umiditate
    00:00 +21°C° 0,3 mm 3 m/s 738 mmHg 96%
    01:00 +20°C° 0,3 mm 3 m/s 738 mmHg 97%
    02:00 +20°C° 0,3 mm 3 m/s 738 mmHg 97%
    03:00 +20°C° 0,1 mm 3 m/s 738 mmHg 97%
    04:00 +20°C° 0,1 mm 3 m/s 738 mmHg 98%
    05:00 +20°C° 0,1 mm 3 m/s 738 mmHg 98%
    06:00 +21°C° 0 mm 3 m/s 738 mmHg 95%
    07:00 +22°C° 0 mm 3 m/s 738 mmHg 93%
    08:00 +22°C° 0 mm 4 m/s 738 mmHg 91%
    09:00 +23°C° 0,1 mm 4 m/s 738 mmHg 88%
    10:00 +25°C° 0,1 mm 4 m/s 738 mmHg 85%
    11:00 +25°C° 0,1 mm 4 m/s 738 mmHg 82%
    12:00 +26°C° 0,2 mm 4 m/s 738 mmHg 80%
    13:00 +26°C° 0,2 mm 4 m/s 738 mmHg 79%
    14:00 +26°C° 0,2 mm 4 m/s 738 mmHg 77%
    15:00 +26°C° 0 mm 4 m/s 738 mmHg 77%
    16:00 +26°C° 0 mm 4 m/s 738 mmHg 77%
    17:00 +26°C° 0 mm 4 m/s 738 mmHg 77%
    18:00 +25°C° 0 mm 3 m/s 738 mmHg 81%
    19:00 +24°C° 0 mm 3 m/s 738 mmHg 85%
    20:00 +23°C° 0 mm 2 m/s 738 mmHg 89%
    21:00 +21°C° 0 mm 2 m/s 738 mmHg 91%
    22:00 +20°C° 0 mm 2 m/s 738 mmHg 94%
    23:00 +19°C° 0 mm 2 m/s 738 mmHg 96%

    19 Iulie, Joi

    Timp Temperatura Precipitaţii Vânt Presiune Umiditate
    00:00 +19°C° 0 mm 2 m/s 738 mmHg 96%
    01:00 +19°C° 0 mm 2 m/s 738 mmHg 97%
    02:00 +18°C° 0 mm 2 m/s 738 mmHg 97%
    03:00 +18°C° 0 mm 2 m/s 738 mmHg 97%
    04:00 +18°C° 0 mm 2 m/s 739 mmHg 97%
    05:00 +18°C° 0 mm 2 m/s 739 mmHg 97%
    06:00 +20°C° 0 mm 2 m/s 739 mmHg 93%
    07:00 +21°C° 0 mm 2 m/s 739 mmHg 88%
    08:00 +23°C° 0 mm 2 m/s 739 mmHg 83%
    09:00 +24°C° 0,2 mm 2 m/s 739 mmHg 80%
    10:00 +24°C° 0,2 mm 2 m/s 739 mmHg 76%
    11:00 +25°C° 0,2 mm 2 m/s 739 mmHg 73%
    12:00 +26°C° 0,4 mm 2 m/s 738 mmHg 69%
    13:00 +27°C° 0,4 mm 2 m/s 738 mmHg 66%
    14:00 +28°C° 0,4 mm 3 m/s 738 mmHg 62%
    15:00 +27°C° 0,5 mm 3 m/s 738 mmHg 66%
    16:00 +27°C° 0,5 mm 3 m/s 738 mmHg 71%
    17:00 +26°C° 0,5 mm 3 m/s 738 mmHg 75%
    18:00 +25°C° 0,2 mm 3 m/s 738 mmHg 81%
    19:00 +22°C° 0,2 mm 3 m/s 738 mmHg 86%
    20:00 +21°C° 0,2 mm 2 m/s 738 mmHg 92%
    21:00 +20°C° 0 mm 2 m/s 738 mmHg 93%
    22:00 +20°C° 0 mm 2 m/s 739 mmHg 95%
    23:00 +19°C° 0 mm 2 m/s 739 mmHg 96%

    20 Iulie, Vineri

    Timp Temperatura Precipitaţii Vânt Presiune Umiditate
    00:00 +19°C° 0 mm 2 m/s 739 mmHg 96%
    01:00 +19°C° 0 mm 2 m/s 739 mmHg 97%
    02:00 +18°C° 0 mm 2 m/s 739 mmHg 97%
    03:00 +18°C° 0,1 mm 2 m/s 739 mmHg 97%
    04:00 +18°C° 0,1 mm 2 m/s 739 mmHg 98%
    05:00 +18°C° 0,1 mm 2 m/s 739 mmHg 98%
    06:00 +19°C° 0 mm 3 m/s 739 mmHg 95%
    07:00 +20°C° 0 mm 3 m/s 740 mmHg 92%
    08:00 +21°C° 0 mm 3 m/s 740 mmHg 89%
    09:00 +22°C° 0,1 mm 3 m/s 740 mmHg 85%
    10:00 +24°C° 0,1 mm 3 m/s 740 mmHg 82%
    11:00 +25°C° 0,1 mm 3 m/s 740 mmHg 78%
    12:00 +26°C° 0,4 mm 2 m/s 740 mmHg 75%
    13:00 +26°C° 0,4 mm 2 m/s 740 mmHg 72%
    14:00 +27°C° 0,4 mm 2 m/s 740 mmHg 69%
    15:00 +27°C° 0,9 mm 2 m/s 740 mmHg 71%
    16:00 +27°C° 0,9 mm 2 m/s 740 mmHg 72%
    17:00 +27°C° 0,9 mm 2 m/s 740 mmHg 73%
    18:00 +26°C° 0,5 mm 2 m/s 740 mmHg 78%
    19:00 +24°C° 0,5 mm 2 m/s 740 mmHg 83%
    20:00 +23°C° 0,5 mm 1 m/s 740 mmHg 87%
    21:00 +22°C° 0 mm 1 m/s 740 mmHg 89%
    22:00 +22°C° 0 mm 1 m/s 740 mmHg 91%
    23:00 +21°C° 0 mm 1 m/s 740 mmHg 93%

    21 Iulie, Sâmbătă

    Timp Temperatura Precipitaţii Vânt Presiune Umiditate
    00:00 +21°C° 0 mm 1 m/s 740 mmHg 94%
    01:00 +20°C° 0 mm 1 m/s 740 mmHg 95%
    02:00 +19°C° 0 mm 2 m/s 740 mmHg 95%
    03:00 +19°C° 0 mm 2 m/s 740 mmHg 96%
    04:00 +20°C° 0 mm 1 m/s 740 mmHg 96%
    05:00 +20°C° 0 mm 1 m/s 740 mmHg 97%
    06:00 +20°C° 0,1 mm 2 m/s 741 mmHg 93%
    07:00 +23°C° 0,1 mm 2 m/s 741 mmHg 89%
    08:00 +24°C° 0,1 mm 2 m/s 741 mmHg 85%
    09:00 +25°C° 0,6 mm 2 m/s 741 mmHg 81%
    10:00 +26°C° 0,6 mm 2 m/s 741 mmHg 76%
    11:00 +27°C° 0,6 mm 3 m/s 741 mmHg 71%
    12:00 +27°C° 1,4 mm 3 m/s 740 mmHg 72%
    13:00 +28°C° 1,4 mm 3 m/s 740 mmHg 72%
    14:00 +28°C° 1,4 mm 3 m/s 740 mmHg 73%
    15:00 +27°C° 1,3 mm 3 m/s 740 mmHg 76%
    16:00 +27°C° 1,3 mm 3 m/s 740 mmHg 79%
    17:00 +26°C° 1,3 mm 3 m/s 740 mmHg 81%
    18:00 +25°C° 0,3 mm 3 m/s 740 mmHg 84%
    19:00 +24°C° 0,3 mm 3 m/s 740 mmHg 88%
    20:00 +22°C° 0,3 mm 3 m/s 740 mmHg 91%
    21:00 +22°C° 0 mm 3 m/s 740 mmHg 92%
    22:00 +21°C° 0 mm 2 m/s 740 mmHg 94%
    23:00 +21°C° 0 mm 2 m/s 740 mmHg 95%
    Arată mai mult